Vertical_Velocity
-1 -0 -0 -1 -0 -1 0 1 0 -0 -2 -2 -5 -4 -3 -3 -5 -2 -2 -6 3 1 -2 -3 -2 -2 0 -3 -6 11 3 -0 9 -1 -14 -5 -4 -2 -5 -7 5 1 2 0 -4
-3 -2 0 1 -1 -2 -1 -3 -4 -3 -5 -4 -1 -2 -2 -3 -2 -1 -2 -6 0 -8 -2 -7 -5 2 0 -5 -1 5 7 -11 11 6 9 1 9 23 3 -5 -0 -1 -1 2 11
-0 -0 1 -1 -2 -2 -1 -3 -3 -4 -5 -4 -3 -3 -3 -2 -2 -4 -5 -3 -6 -4 -2 -3 -2 -4 -0 3 -0 -4 -36 16 -4 1 -5 -11 -1 2 -7 7 2 11 -4 2 2
-1 -2 -3 -2 -3 -3 -2 -2 -2 -4 -2 -3 -3 -2 -5 -7 -4 -5 -6 -1 -2 -3 -3 -2 1 -5 -0 1 3 -2 4 -0 -2 0 9 -2 3 3 8 6 14 -1 3 -0 7
-2 -2 -1 -2 -3 -5 -2 -2 -4 -2 -2 -3 -3 -3 -4 -2 -7 -5 -2 -3 2 1 -5 -4 1 -1 -0 -3 1 -2 3 3 -0 -8 0 3 -7 6 13 2 -1 1 -1 2 1
-3 -2 -1 2 -1 -4 -3 -2 -3 -5 -4 -5 -2 -2 1 -5 -6 -5 -0 -0 -6 -5 3 -1 -1 -0 -1 0 1 0 5 -4 -3 4 -6 -2 -2 11 8 -27 14 6 -3 -2 0
-1 -3 -1 -2 0 -4 -3 -3 -3 -3 -4 -2 1 -3 -1 -6 1 -2 -10 -5 0 -1 -2 -3 -2 4 2 3 7 -2 0 -1 -1 1 -1 5 -6 -9 8 -6 20 5 3 -4 -4
-4 -2 -3 -0 2 -4 -3 -3 -2 -2 -2 -3 -2 -2 -3 -5 -7 5 3 6 -5 -4 -3 -1 -3 2 1 2 -4 0 1 -2 2 2 -1 1 -5 -3 -3 -3 -30 1 0 -9 -4
-1 -1 -3 -3 1 -2 -2 -3 -6 -1 -3 -0 -2 -2 -4 2 1 -5 -4 -5 -5 -3 -2 -2 -3 -2 3 -1 0 1 -3 0 -4 -2 6 4 1 3 -6 1 -29 10 -0 -13 2
-4 -2 -2 -1 -1 3 0 -5 -2 -2 -4 -4 -2 -0 -1 -9 2 -0 1 -3 -3 -5 -1 -3 -4 -2 0 -2 2 -0 -0 3 -1 1 2 1 -4 10 -1 1 -18 5 1 -11 9
-2 -2 -2 -4 -2 -4 3 -6 -3 -1 -2 -8 -5 1 4 -1 -4 3 -6 -0 -2 -4 -5 -2 -1 -5 -2 -1 -0 0 0 -0 8 7 -0 0 -8 1 9 3 6 3 -5 -3 23
-1 -4 -0 -5 -5 -3 -4 -2 0 1 -1 -0 -4 -0 -1 -7 -0 4 2 -10 -6 -7 -2 1 -3 0 1 -1 -2 -2 1 -1 2 -2 2 -1 -2 -2 -5 -5 0 -24 8 11 34
-2 -2 -2 -0 -3 -3 -5 -3 -3 -3 -3 -5 -3 -6 -14 -1 -5 -3 -3 -7 -6 -1 -2 0 -0 1 -3 -2 -1 0 2 3 -0 -4 -3 -2 0 1 -4 -15 -9 -2 -17 -2 9
0 -5 -3 -4 -7 -3 -2 -4 -2 -3 -3 -3 -5 -1 -8 -5 3 -7 2 -1 -5 -3 0 0 -2 -4 -3 -1 -1 -0 2 2 -0 -3 -2 -1 -3 1 7 -2 -0 4 19 3 23
-1 -1 -2 -3 -2 -3 -7 -6 -4 -1 -9 -2 -4 -9 4 -6 -4 -5 -7 3 -5 0 -1 -0 -2 -2 -1 -1 1 -2 -0 2 1 -2 -2 1 -0 3 0 8 11 -19 20 16 -1
-1 -4 -3 -4 -2 -2 -2 -2 -2 -4 -11 -2 -1 -4 -5 -1 1 3 -7 0 -3 -1 4 0 0 -2 0 0 2 -2 8 3 1 -2 -3 -1 2 3 -0 -8 1 -11 2 3 -24
0 -3 -4 -2 -1 -2 -3 -1 -1 -11 -1 -1 -5 -5 -4 -2 0 -7 -12 -15 -18 -14 -8 1 -1 1 0 -0 -2 -3 8 -3 -5 -4 -3 1 0 2 1 -4 -3 4 -9 -10 8
-2 -2 -4 -5 -2 0 -0 -3 -9 -3 -3 0 -6 -1 -4 1 -1 -2 -2 -7 -3 -2 2 -3 -12 -1 2 1 -3 -4 -1 -1 -3 -1 0 1 -2 2 1 5 14 12 -4 -3 1
-2 -2 -3 -1 -2 -2 -3 -5 -4 -2 -1 -3 -1 -4 -2 -1 -3 1 -2 -1 -2 -4 -3 -3 -4 3 2 0 0 -2 -2 5 -0 -1 -0 1 1 3 6 3 2 2 -1 13 14
-3 -3 -2 -3 -0 -1 -5 -5 -2 -2 -1 -1 -3 -1 -3 -2 -2 1 -5 -5 0 -1 0 1 -7 0 2 1 1 2 -2 -2 1 -3 -0 1 0 -0 -0 3 -1 -7 -0 -6 3
-3 -6 -2 -2 -1 -4 -4 -2 -2 -3 -3 -1 -0 -3 -1 -3 3 -0 -3 -1 -3 -3 0 3 1 1 1 -1 -2 -1 -1 -5 5 1 -0 -0 5 1 2 5 0 1 -4 -9 -2
-5 -2 -1 -2 -0 -1 -2 -1 -1 -1 -2 -2 -2 -0 0 0 1 -2 -3 1 1 -6 -2 2 0 -3 3 3 -2 4 5 0 3 -1 3 0 4 -1 4 1 6 -1 0 3 3
-4 -0 -2 -2 -2 -2 -1 -0 -2 -3 -2 -4 -1 -2 1 -2 3 -0 1 -1 3 -2 -4 1 -1 -4 -4 1 2 -0 0 2 2 3 4 -2 1 7 6 3 4 4 3 3 -0
-3 -3 -3 1 -2 -1 0 -2 -4 -3 -2 -5 -2 -4 -3 1 -0 2 -1 -1 1 -1 -2 2 1 2 0 1 1 -3 5 -1 -2 -0 0 5 3 1 -1 1 -2 -2 5 -0 -1
-3 -3 -1 -4 -2 -1 -0 2 -3 -3 -0 -1 -0 -4 -2 -2 0 1 -1 1 3 -2 -2 2 1 1 2 -1 1 1 -0 2 -3 -3 6 5 2 3 0 4 1 4 5 6 1
-4 -2 -2 -1 -2 0 -2 -2 -4 -4 2 0 5 -2 -0 -0 2 -2 -0 -2 0 -0 -3 0 -1 0 3 4 1 1 0 5 -0 0 5 2 0 1 4 -3 3 4 7 3 4
-5 -5 -1 -3 -1 -3 -3 1 -1 -3 1 -1 4 -5 1 1 -2 -0 -1 -4 1 -2 -1 -3 -1 -1 0 3 1 0 -5 0 1 1 0 0 -0 -0 -1 -2 2 3 2 6 5
Height
3134 3130 3127 3122 3118 3113 3108 3102 3096 3089 3080 3072 3064 3056 3048 3042 3038 3035 3033 3032 3031 3027 3023 3021 3019 3017 3016 3016 3019 3020 3019 3016 3017 3021 3024 3033 3039 3042 3048 3052 3056 3060 3063 3067 3071
3132 3129 3125 3120 3116 3111 3105 3099 3092 3085 3076 3067 3058 3051 3045 3041 3037 3033 3032 3030 3027 3023 3021 3019 3015 3013 3012 3013 3015 3015 3011 3013 3016 3016 3019 3025 3034 3040 3043 3048 3050 3054 3057 3062 3067
3132 3127 3123 3118 3113 3108 3102 3096 3089 3081 3072 3061 3052 3047 3043 3040 3037 3034 3032 3029 3026 3021 3019 3015 3012 3008 3007 3008 3010 3010 3007 3010 3012 3015 3017 3020 3026 3033 3037 3041 3045 3049 3052 3057 3061
3131 3126 3122 3116 3110 3105 3100 3092 3084 3076 3066 3057 3051 3045 3041 3037 3040 3034 3032 3029 3024 3020 3017 3013 3010 3007 3005 3004 3005 3003 3003 3006 3009 3014 3016 3019 3023 3027 3032 3036 3039 3044 3047 3051 3055
3130 3126 3120 3115 3109 3102 3097 3089 3080 3071 3061 3053 3048 3045 3041 3037 3037 3034 3031 3028 3023 3018 3014 3011 3007 3004 3002 3001 3000 2997 2998 3003 3005 3011 3013 3016 3018 3022 3025 3029 3031 3037 3042 3046 3049
3128 3124 3119 3114 3108 3100 3094 3086 3076 3067 3058 3052 3048 3046 3042 3040 3036 3033 3030 3025 3022 3017 3013 3009 3006 3003 3000 2999 2997 2994 2996 2999 3002 3007 3010 3011 3014 3016 3018 3021 3027 3033 3038 3041 3045
3126 3121 3117 3112 3106 3098 3090 3082 3072 3062 3055 3050 3048 3045 3043 3040 3035 3031 3029 3024 3020 3015 3011 3008 3006 3003 2999 2996 2994 2994 2997 2998 3000 3004 3006 3009 3010 3011 3014 3016 3017 3028 3034 3036 3038
3123 3119 3113 3108 3103 3095 3087 3077 3067 3059 3054 3051 3048 3044 3042 3038 3035 3032 3028 3024 3020 3014 3010 3008 3005 3002 2998 2996 2996 2996 2997 2998 2999 3001 3004 3007 3007 3010 3012 3016 3018 3024 3029 3031 3033
3122 3116 3110 3104 3099 3093 3084 3074 3064 3058 3054 3052 3050 3045 3042 3041 3037 3033 3028 3023 3019 3015 3010 3007 3004 3003 2999 2996 2997 2997 2997 2997 2999 2999 3003 3005 3007 3011 3013 3017 3017 3020 3026 3030 3033
3119 3114 3108 3101 3095 3090 3082 3071 3062 3059 3055 3052 3051 3050 3045 3036 3031 3030 3028 3024 3018 3014 3011 3008 3005 3004 3001 2999 3000 2999 2998 2998 2999 3000 3001 3003 3006 3010 3011 3012 3012 3017 3024 3028 3033
3117 3112 3106 3099 3092 3085 3079 3070 3066 3059 3055 3051 3049 3046 3043 3038 3032 3028 3025 3024 3019 3014 3010 3007 3007 3004 3003 3002 3002 3000 2999 2999 2999 2998 3001 3005 3006 3007 3009 3011 3009 3014 3018 3025 3031
3115 3110 3104 3098 3090 3083 3076 3067 3060 3060 3054 3053 3051 3049 3045 3037 3033 3028 3024 3022 3019 3013 3010 3009 3007 3006 3005 3004 3002 3000 3000 3000 3001 3000 3003 3005 3007 3009 3009 3010 3012 3016 3020 3020 3028
3114 3109 3102 3096 3089 3082 3072 3065 3058 3056 3055 3053 3049 3047 3043 3038 3034 3029 3026 3021 3019 3015 3011 3009 3008 3007 3005 3005 3003 3000 3001 3001 3002 3002 3002 3003 3003 3006 3011 3012 3013 3014 3015 3019 3025
3112 3107 3101 3094 3087 3077 3071 3064 3058 3055 3055 3058 3053 3047 3043 3039 3036 3030 3026 3023 3020 3017 3012 3011 3008 3006 3005 3005 3004 3002 3002 3002 3002 3003 3004 3004 3004 3002 3006 3011 3015 3014 3010 3016 3024
3109 3104 3099 3092 3085 3077 3070 3062 3057 3055 3060 3059 3053 3049 3043 3039 3037 3033 3028 3024 3021 3019 3017 3014 3009 3006 3006 3007 3005 3005 3003 3003 3002 3003 3004 3005 3008 3005 3004 3006 3009 3013 3016 3016 3022
3107 3102 3096 3091 3083 3075 3067 3062 3058 3058 3059 3059 3055 3050 3045 3038 3034 3032 3029 3026 3023 3020 3017 3014 3011 3009 3007 3007 3007 3005 3003 3005 3005 3006 3006 3004 3007 3008 3009 3012 3015 3013 3013 3015 3021
3104 3099 3093 3087 3082 3073 3066 3063 3060 3060 3066 3062 3054 3047 3044 3038 3035 3028 3027 3024 3024 3022 3018 3015 3013 3010 3008 3008 3008 3006 3005 3008 3012 3012 3011 3007 3007 3007 3006 3010 3015 3019 3019 3020 3026
3103 3097 3091 3085 3079 3072 3067 3064 3060 3066 3063 3061 3056 3052 3047 3040 3035 3031 3029 3029 3029 3028 3023 3018 3014 3012 3011 3011 3011 3009 3009 3010 3016 3014 3011 3010 3011 3012 3009 3008 3009 3014 3017 3025 3028
3100 3096 3090 3085 3078 3071 3068 3064 3066 3065 3062 3058 3056 3050 3048 3044 3038 3032 3031 3033 3032 3031 3030 3023 3017 3015 3012 3010 3013 3012 3011 3012 3011 3012 3011 3013 3013 3013 3012 3008 3006 3009 3014 3022 3025
3098 3094 3089 3083 3077 3071 3067 3065 3064 3064 3061 3058 3056 3054 3049 3043 3040 3034 3032 3035 3035 3035 3031 3029 3020 3015 3012 3013 3014 3014 3015 3014 3012 3017 3015 3014 3014 3014 3011 3011 3013 3016 3016 3018 3022
3095 3089 3086 3081 3075 3070 3066 3064 3063 3063 3061 3061 3056 3054 3051 3046 3041 3038 3039 3037 3036 3035 3032 3029 3026 3019 3015 3016 3016 3016 3016 3016 3015 3015 3015 3013 3020 3019 3016 3013 3016 3018 3018 3022 3026
3093 3089 3084 3079 3076 3069 3066 3063 3063 3061 3060 3058 3055 3054 3050 3046 3042 3038 3037 3035 3033 3033 3033 3030 3026 3021 3019 3017 3018 3018 3018 3018 3017 3017 3015 3016 3021 3019 3017 3017 3017 3019 3022 3026 3028
3090 3087 3082 3078 3074 3069 3066 3064 3063 3061 3059 3057 3055 3054 3051 3047 3044 3038 3038 3037 3035 3033 3033 3032 3029 3024 3020 3021 3021 3020 3020 3020 3019 3018 3016 3017 3021 3020 3018 3017 3017 3019 3021 3024 3028
3088 3084 3079 3075 3072 3068 3065 3064 3063 3061 3058 3054 3053 3052 3050 3047 3044 3041 3038 3036 3035 3034 3033 3032 3030 3030 3030 3026 3024 3020 3020 3020 3020 3020 3018 3018 3019 3019 3019 3019 3019 3017 3020 3024 3027
3085 3083 3080 3075 3070 3067 3065 3063 3061 3061 3058 3053 3049 3050 3047 3048 3043 3041 3039 3038 3035 3035 3034 3033 3030 3027 3025 3023 3021 3020 3018 3020 3021 3022 3020 3019 3018 3019 3018 3018 3019 3019 3020 3023 3026
3082 3080 3076 3072 3069 3067 3065 3064 3062 3061 3059 3055 3050 3048 3047 3045 3045 3041 3039 3038 3037 3036 3034 3032 3030 3026 3024 3024 3023 3021 3020 3019 3021 3022 3023 3022 3020 3019 3018 3019 3019 3018 3020 3024 3025
3078 3076 3073 3070 3067 3065 3064 3062 3061 3061 3059 3055 3052 3046 3046 3043 3042 3041 3040 3039 3038 3035 3033 3032 3029 3025 3024 3022 3021 3024 3023 3022 3023 3023 3022 3022 3022 3021 3021 3021 3022 3021 3021 3023 3024